RH
42 53 60 49 43 39 36 36 36 32 25 27 30 31 29 24 24 28 38 38 53 74 74 72 68 73 78 82 85 64 59 58 68 81 96 96 93 89 90 97 94 92 89 86
48 54 42 36 36 37 36 37 40 33 25 28 27 28 26 24 23 29 40 53 73 82 82 78 74 80 88 93 94 80 64 65 69 87 94 94 93 93 96 97 97 97 96 88
47 41 32 34 37 37 36 38 39 35 29 30 28 37 29 28 40 44 50 71 81 82 86 81 79 78 84 91 97 94 70 68 70 88 95 97 98 98 98 98 99 98 97 95
42 31 32 35 32 33 38 32 33 35 39 44 29 48 32 35 56 53 54 86 87 87 84 78 79 87 92 93 93 90 80 74 80 89 93 94 94 96 99 99 99 99 96 96
41 35 36 35 30 27 34 31 34 39 42 46 42 48 43 44 60 59 59 85 88 86 80 70 82 89 90 92 94 95 93 85 89 92 92 96 96 97 98 99 99 98 98 97
33 27 29 31 28 29 30 33 40 44 50 65 45 44 46 52 54 56 64 82 84 86 74 69 85 86 91 92 94 94 94 97 96 94 96 96 99 97 99 99 99 99 99 99
35 32 30 25 33 32 34 44 78 68 83 73 48 50 41 39 48 46 70 83 84 84 75 87 92 92 90 93 93 91 94 98 97 98 97 97 97 97 95 98 99 99 99 98
48 48 34 28 29 34 42 43 76 75 91 85 52 68 47 45 53 54 68 76 82 86 75 87 94 93 92 91 93 92 94 98 97 97 98 98 97 98 99 98 99 98 97 98
46 49 30 26 25 26 40 46 45 55 62 68 67 48 48 59 60 70 78 84 88 88 75 89 93 94 93 93 94 94 95 95 96 97 98 98 98 98 99 99 98 99 96 95
38 46 30 29 28 31 36 35 50 61 68 74 60 53 43 68 66 74 83 88 88 86 79 88 93 94 94 93 94 93 93 96 96 96 96 97 96 96 98 98 98 98 98 95
34 40 41 35 39 36 37 38 41 46 65 69 59 48 31 51 58 64 79 82 86 86 78 90 94 94 94 93 95 94 94 95 96 95 95 96 96 95 95 97 98 98 98 98
51 42 46 41 31 28 27 30 32 60 52 52 53 45 26 43 53 58 68 75 81 77 77 93 94 95 94 94 95 96 95 95 94 93 93 95 93 93 96 96 96 96 97 96
63 69 51 53 43 37 38 36 31 35 44 50 54 42 35 49 54 53 66 77 78 84 84 92 95 94 94 93 92 93 92 93 91 91 92 94 94 95 97 96 94 93 91 93
72 72 62 49 43 37 40 34 31 32 40 41 43 37 33 41 51 53 64 76 84 85 81 88 92 90 89 91 92 93 91 87 86 85 88 91 91 87 86 86 86 86 82 86
79 99 71 59 36 33 31 33 31 34 32 40 31 31 28 31 42 49 62 79 90 89 83 82 88 89 87 90 91 90 88 83 83 85 84 83 80 76 76 74 69 69 71 68
84 99 82 76 49 44 43 40 34 31 30 29 28 33 21 24 43 68 64 76 88 90 84 75 75 83 85 87 89 89 87 80 77 82 80 77 72 69 68 66 66 70 69 68
87 98 98 88 66 54 58 42 38 35 28 29 34 26 29 36 31 58 61 62 79 85 83 76 72 76 77 83 83 84 82 79 79 80 77 74 70 69 67 63 62 63 65 72
87 87 91 97 87 93 50 33 29 30 29 26 25 28 26 33 27 42 53 56 67 76 82 80 75 80 76 79 77 76 76 80 79 78 76 72 70 68 64 71 78 81 81 83
81 85 92 98 93 71 52 39 41 36 33 29 27 24 27 30 37 39 48 51 58 68 79 79 78 77 80 82 75 75 78 80 78 78 72 69 77 82 80 78 79 80 77 83
60 76 89 87 98 96 47 38 36 37 48 26 24 26 24 31 44 41 43 49 55 66 75 80 75 75 78 82 74 75 79 78 75 80 78 76 78 77 76 80 77 75 74 72
81 84 93 88 87 83 54 38 36 51 44 27 24 23 29 28 21 30 40 47 55 67 74 74 72 77 76 77 79 83 85 85 78 72 71 72 73 74 74 74 70 69 69 68
66 88 94 80 90 86 43 41 50 38 29 29 31 32 31 26 34 36 40 49 63 71 73 72 72 75 75 74 75 78 81 72 66 65 66 69 69 56 59 64 70 65 66 69
61 70 95 92 69 44 38 29 26 39 34 39 36 38 39 30 36 39 44 52 63 68 71 67 68 73 73 70 65 67 67 60 60 60 63 64 63 61 59 60 68 68 70 70
60 45 58 73 63 58 44 33 34 38 33 32 34 36 40 36 34 40 46 52 61 66 68 64 65 70 73 64 57 57 55 53 53 55 59 60 61 64 64 59 60 65 69 75
63 74 81 75 55 42 42 39 30 27 28 31 32 36 41 40 36 38 47 52 58 64 64 63 64 67 69 62 55 53 48 48 49 50 52 54 58 60 64 63 66 64 68 65
64 66 72 63 55 50 42 36 37 38 37 35 34 36 38 45 43 40 47 52 58 63 65 65 64 65 66 62 55 50 46 44 45 48 50 51 58 59 63 71 87 66 64 68
Wind_Speed
5 4 8 12 9 8 9 6 8 6 4 6 12 10 11 10 7 9 9 9 8 8 4 5 6 7 10 9 9 7 4 3 3 2 3 4 5 4 2 5 10 10 8 10
4 13 13 11 12 10 10 9 6 5 7 2 5 11 11 10 9 9 10 8 8 6 7 7 9 7 6 7 6 6 4 3 3 3 2 3 4 3 3 1 4 7 8 10
13 13 13 15 14 11 8 4 4 8 7 4 5 9 8 5 4 11 9 9 8 8 8 7 6 5 7 8 7 6 6 6 6 6 4 4 5 4 3 1 2 3 6 9
10 16 18 9 10 10 5 7 5 3 2 4 6 8 7 4 5 7 10 9 9 9 7 5 4 4 5 6 7 6 5 5 4 7 6 7 5 4 3 4 2 2 3 9
10 5 10 15 17 8 7 4 3 0 2 4 3 2 8 3 6 8 8 10 9 8 8 5 2 3 4 5 5 8 9 2 6 6 7 5 4 3 2 1 5 5 2 4
14 10 4 8 4 5 6 4 3 3 3 4 7 9 7 5 10 8 8 11 12 9 8 5 4 5 5 6 6 7 9 9 7 3 6 7 7 5 4 3 4 3 3 4
10 17 8 5 4 2 6 8 3 3 2 8 5 5 13 6 10 16 19 14 12 9 8 5 6 6 5 7 6 6 6 7 8 8 6 6 5 3 1 2 3 5 4 4
10 10 13 5 11 8 7 9 8 7 4 6 6 6 7 2 4 14 16 15 13 9 9 7 6 6 4 5 6 6 7 6 6 7 6 5 6 2 2 2 3 4 4 6
5 8 8 12 7 15 5 9 7 3 3 3 5 6 3 3 8 12 15 15 12 10 10 8 8 6 3 4 5 4 5 6 6 6 5 5 5 4 4 5 3 4 6 8
9 16 7 5 7 5 10 7 3 2 4 5 7 5 8 8 11 13 15 15 12 11 10 8 8 7 3 4 5 5 5 5 6 6 6 6 6 6 6 5 6 8 7 10
16 13 5 3 5 12 6 7 4 6 6 6 3 7 6 19 18 17 13 13 14 12 10 9 8 7 5 4 5 4 4 6 6 6 6 7 6 7 7 7 7 8 8 7
7 12 18 18 7 7 14 18 15 7 5 6 4 8 3 10 16 15 13 13 14 13 11 9 8 7 7 5 6 5 4 6 6 6 7 7 7 7 8 9 8 8 9 9
11 6 12 1 4 5 6 5 11 9 2 6 6 7 3 8 12 13 15 15 15 13 13 8 8 7 7 7 7 7 5 7 6 7 7 8 7 8 9 8 8 8 9 9
14 6 11 18 9 8 6 11 12 15 14 7 9 4 3 6 11 11 14 17 16 16 15 11 8 7 7 8 7 7 6 7 8 8 8 8 8 9 9 9 9 8 8 10
3 6 11 15 11 9 10 14 23 24 20 13 16 17 10 11 13 17 13 16 18 16 15 13 11 9 8 9 8 7 7 7 8 9 9 9 8 8 8 9 9 8 7 8
2 5 10 11 12 9 15 14 11 18 21 20 17 11 12 15 8 10 17 18 19 18 16 16 15 13 11 11 10 9 8 8 8 10 9 8 8 8 8 8 9 8 8 8
0 5 7 7 13 7 12 24 21 10 18 15 21 22 2 4 17 18 18 19 20 19 19 20 19 14 13 12 11 11 11 10 9 9 8 8 9 9 8 9 9 9 9 8
7 7 7 5 7 14 12 6 14 18 12 21 16 9 12 9 16 17 20 21 19 20 19 18 16 13 13 12 12 12 11 11 11 11 10 10 10 10 9 8 8 7 7 8
12 5 4 7 5 11 7 15 4 6 15 8 16 15 11 8 6 7 18 21 23 23 20 18 16 15 14 14 14 13 12 12 11 12 12 10 8 7 8 8 8 7 9 8
14 14 8 7 4 6 10 16 5 3 17 10 16 17 19 8 8 10 18 19 17 20 19 18 17 16 16 14 15 15 13 12 11 9 9 9 9 10 9 8 8 5 6 8
4 13 18 12 11 10 8 16 10 11 6 11 18 17 14 15 19 7 15 17 19 22 21 20 19 17 17 16 15 14 14 13 11 10 11 10 9 10 8 7 5 6 7 9
9 5 9 12 12 21 10 12 12 6 6 4 4 4 10 18 8 12 19 19 21 22 21 21 18 17 16 17 15 13 14 12 13 13 12 11 10 9 8 10 5 8 10 10
13 12 5 5 9 10 4 17 19 8 5 2 5 6 6 13 10 13 17 20 22 24 21 19 18 18 16 17 15 16 13 14 15 13 12 11 9 9 9 10 8 7 7 7
8 12 15 11 18 17 16 20 13 10 6 7 5 6 6 9 11 14 17 18 19 20 21 18 20 19 17 16 15 14 14 15 15 14 12 10 11 9 7 6 6 7 6 6
7 5 5 10 14 17 23 20 25 21 17 11 8 6 8 7 11 17 16 19 19 20 20 19 20 18 18 16 15 14 15 16 14 13 12 11 9 10 7 6 6 6 3 7
9 12 8 11 12 12 19 20 7 9 15 15 9 7 5 4 10 14 17 18 19 20 18 18 18 18 18 17 15 15 16 17 15 13 10 10 8 7 6 6 4 5 10 12
Wind_Direction
199 172 216 222 225 234 243 247 250 272 220 189 229 244 251 244 247 232 206 192 123 111 139 62 45 25 6 356 340 278 175 209 125 212 184 180 164 191 164 160 181 185 188 189
235 236 219 225 240 236 247 240 273 286 314 290 267 265 260 247 227 198 177 131 121 98 56 38 30 16 354 326 319 340 242 218 197 163 160 165 148 128 115 104 170 189 177 186
207 225 212 223 243 258 268 220 256 249 281 293 298 297 267 312 118 104 109 116 102 102 79 56 29 11 352 336 323 300 263 226 213 174 112 89 81 73 77 166 209 223 192 179
236 241 245 249 226 192 251 242 237 264 56 253 85 286 272 249 143 137 135 123 122 104 96 86 42 16 352 329 324 350 330 219 209 154 132 146 157 152 187 196 143 157 205 185
225 218 212 229 241 195 220 190 172 276 334 342 139 287 272 140 177 179 148 136 129 130 119 102 86 52 360 347 8 17 23 28 136 147 153 147 141 110 111 198 153 139 89 130
227 249 191 211 178 212 141 106 6 17 89 296 218 175 275 213 189 168 136 145 141 132 123 129 119 76 36 13 29 54 37 31 19 116 109 116 129 160 168 191 170 161 124 81
273 259 255 154 146 88 103 85 325 346 16 230 268 170 242 284 174 169 156 153 145 140 132 120 121 87 49 29 19 50 59 53 39 48 72 96 104 119 222 242 177 153 141 126
216 265 215 202 180 171 183 152 165 209 204 253 299 241 258 237 116 133 139 140 138 142 138 137 120 104 89 68 49 48 54 54 61 74 83 78 82 76 101 123 123 144 140 125
235 235 270 208 166 155 203 205 164 65 273 52 238 290 354 96 100 127 141 140 147 144 155 146 132 120 114 93 72 72 83 83 71 77 71 75 85 97 98 59 79 100 131 125
224 275 263 237 132 193 151 164 112 99 200 234 269 242 230 190 176 155 160 156 155 150 158 150 143 139 130 98 95 77 70 81 86 84 86 86 88 85 86 88 69 83 111 110
217 222 279 312 208 169 170 211 192 143 162 186 263 257 222 194 181 175 168 161 160 155 153 150 144 140 135 117 102 94 77 85 87 96 98 98 100 99 101 90 78 80 86 100
328 219 228 224 236 218 203 204 197 140 233 219 167 270 281 186 175 164 167 161 159 155 147 145 145 150 149 134 124 104 87 90 87 85 82 83 92 91 93 93 90 93 95 95
348 311 230 254 265 257 216 187 197 199 121 215 163 259 1 125 148 172 164 159 159 149 146 151 145 156 152 144 133 121 110 103 95 98 95 91 85 89 86 82 92 96 102 102
346 263 267 237 235 147 203 198 209 209 227 219 220 269 286 178 165 172 170 157 155 156 158 163 161 161 157 148 134 130 115 124 114 100 94 87 87 91 94 99 90 91 99 103
93 268 296 306 235 196 203 203 206 213 220 201 239 238 224 209 185 180 163 147 150 159 163 171 168 160 154 145 140 139 125 123 122 109 100 99 96 90 89 91 91 78 77 88
17 285 320 296 287 241 244 242 238 225 225 234 250 255 240 205 130 150 167 160 163 165 167 173 175 161 160 152 152 145 139 131 126 119 113 114 103 100 98 100 99 97 87 81
339 327 332 283 291 289 255 237 241 238 223 216 231 237 297 185 172 173 176 175 171 168 167 175 180 166 161 158 157 152 147 135 128 124 123 122 122 118 118 117 115 110 103 95
190 195 244 264 300 231 241 201 221 233 221 223 237 229 201 204 192 183 184 175 170 168 167 170 174 165 154 157 156 146 143 142 141 140 143 141 137 135 134 115 108 103 98 94
195 194 280 282 245 276 295 242 194 197 256 224 221 226 223 193 167 222 188 180 173 171 166 167 168 161 152 160 157 151 149 148 150 154 157 152 139 125 121 121 119 109 106 98
210 200 195 214 273 267 254 250 253 329 265 223 230 219 214 141 188 221 182 175 167 162 159 161 163 159 154 163 159 156 157 159 163 160 143 137 136 137 136 134 130 124 122 119
191 220 219 219 234 266 274 295 260 221 248 230 214 219 203 198 216 152 165 171 160 159 158 157 161 163 164 162 161 161 159 165 159 144 143 144 143 138 137 129 121 121 113 119
233 217 226 209 225 244 188 276 222 273 243 350 309 238 216 213 173 154 168 163 155 157 155 158 161 163 163 164 162 158 167 159 149 146 146 145 142 143 137 130 131 128 130 132
248 221 258 229 221 256 204 225 251 291 297 270 296 286 281 216 170 161 166 162 158 158 159 158 154 155 160 163 162 160 162 152 146 145 147 145 139 139 144 140 143 135 141 142
272 269 231 235 263 282 269 272 264 277 267 296 280 292 300 210 172 158 157 159 155 158 158 156 154 157 160 162 161 160 154 151 148 149 150 147 147 148 144 143 148 149 154 150
234 343 266 258 270 258 270 265 262 265 281 285 282 276 282 229 190 155 158 159 158 157 157 158 162 163 162 159 159 155 155 151 152 151 154 154 156 157 151 153 160 159 170 162
219 242 240 252 266 264 259 269 305 243 257 243 241 269 283 214 178 157 159 158 156 158 157 160 163 160 160 162 160 157 159 156 153 155 160 162 155 157 151 141 97 173 163 179